Visibility
15.0 15.0 15.0 14.6 15.0 15.0 3.9 6.7 0.0 15.0 15.0 0.1 2.6 7.1 14.5 15.0 14.7 3.9 6.6 12.5 15.0 15.0 15.0 15.0 15.0 15.0 15.0 15.0 15.0 15.0 15.0 15.0 15.0 15.0 15.0 15.0 15.0 15.0 15.0 15.0 15.0 15.0 15.0 15.0
13.0 15.0 14.4 8.3 15.0 10.2 11.9 0.0 0.0 14.0 4.3 0.1 0.3 2.3 15.0 15.0 15.0 15.0 0.2 15.0 15.0 15.0 15.0 15.0 15.0 15.0 15.0 15.0 15.0 15.0 15.0 15.0 15.0 13.0 15.0 15.0 15.0 15.0 15.0 15.0 15.0 15.0 15.0 15.0
9.6 10.9 7.2 15.0 13.4 5.4 1.3 0.0 0.0 0.0 0.0 5.8 1.2 15.0 15.0 15.0 15.0 15.0 9.2 0.1 15.0 15.0 8.5 15.0 15.0 15.0 15.0 15.0 15.0 15.0 15.0 15.0 15.0 10.6 15.0 15.0 15.0 15.0 15.0 15.0 15.0 15.0 15.0 15.0
15.0 15.0 15.0 15.0 7.6 7.9 1.1 0.0 0.0 11.6 0.2 4.4 9.1 3.8 4.9 15.0 11.3 12.9 14.6 3.4 0.1 11.0 0.3 15.0 15.0 15.0 15.0 15.0 15.0 15.0 15.0 11.3 15.0 15.0 15.0 15.0 15.0 15.0 15.0 15.0 15.0 15.0 15.0 15.0
11.8 15.0 15.0 14.4 11.9 9.2 0.2 0.0 0.0 0.0 13.8 15.0 14.9 15.0 15.0 0.4 15.0 15.0 15.0 0.2 15.0 7.1 15.0 15.0 15.0 15.0 15.0 15.0 14.9 15.0 8.3 5.4 15.0 15.0 15.0 15.0 15.0 15.0 15.0 15.0 15.0 15.0 15.0 15.0
15.0 10.3 8.8 14.6 10.7 6.3 0.1 0.2 6.9 0.1 0.7 6.6 0.8 4.4 15.0 15.0 15.0 14.8 15.0 15.0 13.8 11.7 15.0 15.0 15.0 15.0 15.0 15.0 15.0 13.0 14.1 3.0 0.2 0.8 1.7 6.8 0.0 15.0 15.0 15.0 15.0 15.0 14.4 13.6
12.9 13.0 9.9 8.5 8.3 9.3 1.3 0.1 0.1 0.0 0.1 0.1 3.0 15.0 15.0 15.0 15.0 15.0 15.0 15.0 15.0 15.0 15.0 15.0 15.0 4.1 10.7 11.7 9.5 15.0 14.7 10.5 0.1 0.1 0.0 0.0 5.7 15.0 15.0 15.0 15.0 15.0 15.0 15.0
10.9 13.9 14.4 13.6 14.8 12.1 1.4 3.6 0.1 0.0 0.2 13.8 15.0 15.0 15.0 15.0 15.0 15.0 15.0 15.0 15.0 15.0 15.0 1.1 0.1 0.1 0.1 0.1 0.1 0.3 6.3 2.3 0.1 0.1 0.1 4.4 15.0 15.0 15.0 15.0 15.0 15.0 15.0 15.0
15.0 15.0 15.0 14.3 12.5 6.0 4.3 3.2 1.3 0.0 0.0 0.6 15.0 15.0 15.0 15.0 15.0 15.0 15.0 14.8 15.0 10.1 3.9 0.1 0.1 0.1 1.4 0.1 0.0 0.0 0.5 0.4 0.0 0.1 0.1 0.3 15.0 15.0 15.0 15.0 15.0 15.0 15.0 15.0
15.0 15.0 9.4 8.4 5.4 4.3 3.0 1.1 5.4 0.0 0.0 8.0 15.0 15.0 15.0 15.0 15.0 15.0 9.6 0.1 0.0 8.2 0.0 0.1 0.1 0.1 2.6 0.2 0.1 0.0 0.0 0.0 0.0 0.1 0.1 3.4 15.0 15.0 15.0 15.0 14.5 15.0 15.0 15.0
15.0 15.0 9.0 6.6 7.0 8.2 0.9 3.2 6.7 0.1 0.0 5.7 15.0 15.0 15.0 15.0 15.0 11.5 0.2 0.2 0.0 0.1 0.0 0.0 0.2 0.1 0.1 0.6 14.7 8.0 9.4 1.3 0.1 0.1 0.2 6.1 15.0 15.0 15.0 15.0 15.0 15.0 15.0 15.0
15.0 15.0 11.9 9.1 9.9 8.4 11.0 0.1 11.2 4.5 0.2 2.0 15.0 15.0 15.0 15.0 15.0 15.0 4.0 11.4 0.3 2.3 0.0 0.1 0.1 0.2 0.3 14.1 0.1 15.0 15.0 15.0 13.8 14.1 14.0 15.0 15.0 15.0 15.0 15.0 15.0 15.0 15.0 15.0
15.0 15.0 14.9 14.9 7.1 7.2 10.8 0.8 3.1 0.4 0.0 0.7 6.4 14.0 15.0 14.2 15.0 11.6 15.0 8.5 12.0 15.0 15.0 7.9 15.0 3.6 15.0 10.2 15.0 15.0 15.0 15.0 15.0 15.0 15.0 15.0 15.0 15.0 15.0 15.0 15.0 15.0 15.0 15.0
15.0 15.0 15.0 15.0 6.7 5.7 7.9 3.5 3.8 6.8 6.8 0.1 0.0 15.0 5.0 15.0 13.9 15.0 15.0 15.0 15.0 11.7 11.0 10.3 15.0 15.0 15.0 15.0 15.0 15.0 15.0 15.0 15.0 15.0 15.0 13.2 15.0 15.0 15.0 15.0 15.0 15.0 15.0 15.0
15.0 15.0 15.0 15.0 15.0 11.7 6.2 15.0 9.7 5.3 14.2 0.6 0.0 7.8 15.0 10.8 15.0 9.2 14.5 15.0 13.3 15.0 15.0 1.5 13.8 0.3 12.2 2.8 14.0 15.0 15.0 15.0 15.0 11.7 15.0 15.0 15.0 15.0 15.0 15.0 15.0 15.0 15.0 15.0
15.0 15.0 15.0 15.0 15.0 15.0 5.4 0.7 15.0 10.9 1.3 11.9 0.1 0.0 0.1 15.0 15.0 9.7 3.3 2.9 2.9 0.2 0.0 0.1 0.0 15.0 15.0 7.3 0.2 15.0 15.0 15.0 15.0 11.1 15.0 15.0 15.0 15.0 15.0 15.0 15.0 15.0 15.0 15.0
15.0 15.0 15.0 15.0 15.0 15.0 1.0 0.3 3.7 11.1 15.0 12.4 0.1 0.1 0.0 0.1 0.1 0.1 0.0 6.9 0.1 0.1 0.0 0.1 0.0 0.2 0.3 0.5 7.9 15.0 15.0 15.0 15.0 15.0 15.0 15.0 15.0 15.0 15.0 15.0 15.0 15.0 15.0 15.0
15.0 15.0 15.0 15.0 15.0 15.0 12.9 15.0 14.7 7.7 11.7 15.0 0.4 0.1 0.0 0.1 0.0 0.0 0.1 0.0 1.1 0.1 0.1 0.0 0.1 0.3 1.3 3.2 13.9 15.0 15.0 15.0 15.0 15.0 15.0 15.0 15.0 15.0 15.0 15.0 15.0 15.0 15.0 15.0
15.0 15.0 15.0 15.0 15.0 15.0 15.0 15.0 15.0 15.0 14.1 0.3 0.3 0.1 0.0 1.0 0.0 0.0 3.6 14.5 0.3 0.8 0.1 0.1 3.1 0.8 13.9 15.0 15.0 15.0 15.0 15.0 15.0 15.0 15.0 15.0 15.0 15.0 15.0 15.0 15.0 15.0 15.0 15.0
15.0 15.0 15.0 15.0 15.0 15.0 15.0 15.0 15.0 15.0 14.7 0.5 0.1 0.3 0.0 0.1 0.5 0.2 0.3 0.8 0.1 0.1 0.1 1.3 0.2 14.4 15.0 15.0 14.8 15.0 15.0 15.0 15.0 15.0 15.0 15.0 15.0 15.0 15.0 15.0 15.0 15.0 15.0 15.0
15.0 15.0 15.0 15.0 15.0 15.0 15.0 15.0 15.0 15.0 1.5 0.2 0.0 0.0 0.1 1.2 4.6 1.6 15.0 13.0 15.0 5.1 0.9 10.9 1.1 14.8 15.0 15.0 15.0 15.0 15.0 15.0 15.0 15.0 15.0 15.0 15.0 15.0 15.0 15.0 15.0 15.0 15.0 15.0
15.0 14.4 15.0 15.0 15.0 15.0 15.0 15.0 15.0 15.0 0.2 0.1 0.1 0.2 1.9 7.6 15.0 12.8 15.0 15.0 15.0 3.1 15.0 15.0 15.0 15.0 15.0 15.0 15.0 15.0 15.0 15.0 15.0 15.0 15.0 15.0 15.0 15.0 15.0 15.0 15.0 15.0 15.0 15.0
15.0 15.0 15.0 15.0 15.0 15.0 8.4 6.6 15.0 15.0 15.0 15.0 15.0 15.0 15.0 15.0 15.0 15.0 15.0 15.0 15.0 15.0 15.0 15.0 11.3 2.6 15.0 15.0 15.0 3.1 15.0 15.0 15.0 15.0 15.0 15.0 15.0 15.0 15.0 8.2 14.3 15.0 15.0 14.9
15.0 15.0 15.0 14.5 4.6 8.0 4.7 1.8 2.3 10.7 15.0 15.0 15.0 15.0 15.0 15.0 15.0 15.0 15.0 15.0 15.0 15.0 15.0 15.0 7.4 15.0 15.0 15.0 15.0 15.0 9.0 15.0 15.0 15.0 15.0 15.0 15.0 15.0 15.0 15.0 11.2 0.1 0.1 0.4
15.0 15.0 0.0 12.8 14.3 6.0 8.2 8.9 15.0 15.0 15.0 15.0 15.0 15.0 15.0 15.0 15.0 15.0 15.0 15.0 12.4 15.0 15.0 15.0 15.0 15.0 15.0 15.0 15.0 15.0 15.0 15.0 15.0 15.0 15.0 15.0 15.0 14.8 9.6 15.0 15.0 15.0 7.1 6.7
15.0 15.0 15.0 14.9 15.0 15.0 15.0 8.0 10.6 15.0 9.4 15.0 15.0 15.0 15.0 15.0 15.0 15.0 15.0 15.0 15.0 15.0 15.0 13.4 15.0 14.3 15.0 15.0 15.0 15.0 15.0 15.0 15.0 15.0 15.0 15.0 13.7 8.1 10.0 13.2 15.0 11.9 15.0 15.0
15.0 14.1 1.9 7.6 13.3 15.0 9.5 6.5 14.7 15.0 15.0 15.0 15.0 15.0 15.0 15.0 15.0 15.0 15.0 15.0 15.0 15.0 2.0 15.0 15.0 15.0 15.0 15.0 15.0 15.0 15.0 15.0 15.0 15.0 15.0 15.0 10.0 10.0 15.0 11.7 1.2 3.6 15.0 8.9